Weather History for KFHR - April, 2014

Change the Weather History Date:

Monday, April 21, 2014

  Actual Average Record
Temperature  
Mean Temperature 48 °F -  
Max Temperature 57 °F 55 °F 63 °F (2004)
Min Temperature 41 °F 37 °F 33 °F (2008)
Degree Days  
Heating Degree Days 17    
Moisture  
Dew Point 44 °F    
Average Humidity 82    
Maximum Humidity 96    
Minimum Humidity 64    
Precipitation  
Precipitation 0.00 in - - ()
Sea Level Pressure  
Sea Level Pressure 29.97 in    
Wind  
Wind Speed 2 mph (SSE)    
Max Wind Speed 7 mph    
Max Gust Speed -    
Visibility 10 miles    
Events Rain    
Averages and records for this station are not official NWS values.
T = Trace of Precipitation, MM = Missing Value Source: NWS Daily Summary

Daily Weather History Graph

Daily Weather History Graph

Search for Another Location

Airport or City:

Trip Planner

Search our weather history database for the weather conditions in past years. The results will help you decide how hot, cold, wet, or windy it might be!

Date:

Astronomy

Apr. 21, 2014 Rise Set
Actual Time 6:10 AM PDT 8:12 PM PDT
Civil Twilight 5:36 AM PDT 8:46 PM PDT
Nautical Twilight 4:54 AM PDT 9:28 PM PDT
Astronomical Twilight 4:08 AM PDT 10:15 PM PDT
Moon 1:53 AM PDT (4/21) 11:37 AM PDT (4/21)
Length of Visible Light 15h 09m
Length of Day
14h 02m
Waning Gibbous, 56% of the Moon is Illuminated
Apr 21
Waning Gibbous
Apr 22
Last Quarter
Apr 28
New
May 6
First Quarter
May 14
Full

Hourly Weather History & Observations

Time (PDT) Temp. Windchill Dew Point Humidity Pressure Visibility Wind Dir Wind Speed Gust Speed Precip Events Conditions
12:53 AM 42.1 °F - 39.9 °F 92% 30.12 in 10.0 mi Calm Calm - N/A   Clear
1:53 AM 42.1 °F - 39.9 °F 92% 30.12 in 10.0 mi Calm Calm - N/A   Clear
2:53 AM 42.1 °F - 39.0 °F 89% 30.10 in 10.0 mi Calm Calm - N/A   Clear
3:53 AM 43.0 °F - 41.0 °F 93% 30.09 in 10.0 mi Calm Calm - N/A   Overcast
4:53 AM 42.1 °F - 39.9 °F 92% 30.07 in 10.0 mi Calm Calm - N/A   Partly Cloudy
5:53 AM 41.0 °F - 39.0 °F 93% 30.06 in 10.0 mi Calm Calm - N/A   Clear
6:53 AM 41.0 °F - 39.9 °F 96% 30.05 in 9.0 mi Calm Calm - N/A   Clear
7:53 AM 46.0 °F - 44.1 °F 93% 30.05 in 10.0 mi Calm Calm - N/A   Clear
8:14 AM 46.9 °F - 44.1 °F 90% 30.04 in 10.0 mi Calm Calm - N/A   Scattered Clouds
8:53 AM 48.0 °F - 45.0 °F 89% 30.04 in 10.0 mi Calm Calm - N/A   Mostly Cloudy
9:15 AM 48.9 °F - 45.0 °F 86% 30.03 in 10.0 mi Calm Calm - N/A   Overcast
9:42 AM 51.1 °F - 46.0 °F 83% 30.02 in 10.0 mi East 3.5 mph - N/A   Mostly Cloudy
9:53 AM 51.1 °F - 45.0 °F 80% 30.03 in 10.0 mi ESE 4.6 mph - N/A   Mostly Cloudy
10:06 AM 51.1 °F - 45.0 °F 80% 30.02 in 10.0 mi ESE 3.5 mph - N/A   Mostly Cloudy
10:53 AM 51.1 °F - 44.1 °F 77% 30.02 in 10.0 mi ESE 5.8 mph - N/A   Overcast
11:29 AM 52.0 °F - 44.1 °F 74% 30.01 in 10.0 mi ESE 4.6 mph - N/A   Partly Cloudy
11:53 AM 52.0 °F - 43.0 °F 71% 30.01 in 10.0 mi ESE 4.6 mph - N/A   Scattered Clouds
12:12 PM 53.1 °F - 43.0 °F 69% 30.00 in 10.0 mi SE 3.5 mph - N/A   Mostly Cloudy
12:41 PM 54.0 °F - 44.1 °F 69% 30.00 in 10.0 mi ESE 4.6 mph - N/A   Scattered Clouds
12:53 PM 55.0 °F - 44.1 °F 67% 29.99 in 10.0 mi East 4.6 mph - N/A   Mostly Cloudy
1:53 PM 54.0 °F - 44.1 °F 69% 29.98 in 10.0 mi SW 4.6 mph - N/A   Mostly Cloudy
2:37 PM 55.0 °F - 45.0 °F 69% 29.95 in 10.0 mi Calm Calm - N/A   Scattered Clouds
2:53 PM 55.0 °F - 45.0 °F 69% 29.95 in 10.0 mi Variable 3.5 mph - N/A   Scattered Clouds
3:04 PM 55.0 °F - 45.0 °F 69% 29.95 in 10.0 mi SE 5.8 mph - N/A   Mostly Cloudy
3:53 PM 55.9 °F - 44.1 °F 64% 29.93 in 10.0 mi South 6.9 mph - N/A   Scattered Clouds
4:24 PM 55.0 °F - 44.1 °F 67% 29.92 in 10.0 mi SW 6.9 mph - N/A   Mostly Cloudy
4:43 PM 54.0 °F - 44.1 °F 69% 29.91 in 10.0 mi Calm Calm - N/A   Mostly Cloudy
4:53 PM 55.0 °F - 44.1 °F 67% 29.92 in 10.0 mi North 6.9 mph - N/A   Partly Cloudy
5:53 PM 54.0 °F - 44.1 °F 69% 29.91 in 10.0 mi East 3.5 mph - N/A   Mostly Cloudy
6:06 PM 53.1 °F - 44.1 °F 71% 29.90 in 10.0 mi East 3.5 mph - N/A   Overcast
6:27 PM 53.1 °F - 44.1 °F 71% 29.90 in 10.0 mi Calm Calm - N/A   Overcast
6:53 PM 52.0 °F - 44.1 °F 74% 29.90 in 10.0 mi Calm Calm - N/A   Overcast
7:53 PM 50.0 °F - 43.0 °F 77% 29.88 in 10.0 mi Calm Calm - N/A   Overcast
8:53 PM 48.0 °F - 45.0 °F 89% 29.89 in 8.0 mi Calm Calm - 0.00 in Rain Light Rain
9:15 PM 48.0 °F - 46.0 °F 93% 29.90 in 8.0 mi SW 3.5 mph - 0.00 in Rain Light Rain
9:25 PM 48.0 °F - 46.0 °F 93% 29.90 in 5.0 mi SW 3.5 mph - 0.00 in Rain Light Rain
9:53 PM 46.9 °F - 45.0 °F 93% 29.89 in 7.0 mi SW 4.6 mph - 0.00 in Rain Light Rain
10:02 PM 46.9 °F - 45.0 °F 93% 29.88 in 7.0 mi WSW 4.6 mph - 0.00 in Rain Light Rain
10:13 PM 46.9 °F - 45.0 °F 93% 29.88 in 8.0 mi WSW 3.5 mph - 0.00 in Rain Light Rain
10:18 PM 46.9 °F - 45.0 °F 93% 29.87 in 10.0 mi WSW 3.5 mph - 0.00 in Rain Light Rain
10:36 PM 46.9 °F - 45.0 °F 93% 29.87 in 10.0 mi Calm Calm - 0.00 in   Overcast
10:53 PM 46.0 °F - 45.0 °F 96% 29.86 in 10.0 mi Calm Calm - 0.00 in   Overcast
11:53 PM 46.0 °F 44.8 °F 43.0 °F 89% 29.85 in 8.0 mi SW 3.5 mph - 0.00 in Rain Light Rain